R3D2 (44073 NORAD) Tracking and Keplerian Element Data

This shows tracking and keplerian element data for the satellite.

Feedback or suggestion? Click here.




ElementValue
Catalog44073
NameR3D2
Epoch Orbit394
Epoch Day113.51721655
Epoch Year2019
RAAN299.6547
Inclination39.517
Eccentricity0.0008524
Argument of Perigee103.9256
Mean Anonmoly256.2511
Mean Motion15.45806775
Decay Rate-2.25E-06
L11 44073U 19016A 19113.51721655 -.00000225 00000-0 00000+0 0 9991
L22 44073 39.5170 299.6547 0008524 103.9256 256.2511 15.45806775 3948

Live tracking and technical data element details for R3D2 (NORAD 44073). R3D2 can be tracked NOW for your location showing map with azimuth and elevation plus other details from your city location.

Track the satellite on the map from your city or location and see movement details for azimuth, elevation, latitude, longitude, range, height, and movement on the map or in text.







IsCatalogInMostPopularTable: catalog: 44073, numindb: 39
Update: records affected: 1



GetName: 44073 R3D2

Hit Count: updated at: Fri, 19 Jul 2019 22:39:31 GMT